SCP
0 0 0 0 0 0 0 0 0 0 0 0 0 0 0 0 0 0 0 0 0 0 0 0 0 0 0 0 0 0 0 0 0 0 0 0 0 0 0 0 0 0 0 0 -0
0 0 0 0 0 0 0 0 0 0 0 0 0 0 0 0 0 0 0 0 0 0 0 0 0 0 0 0 0 0 0 0 0 0 0 0 0 0 0 0 0 0 0 0 0
0 0 0 0 0 0 0 0 0 0 0 0 0 0 0 0 0 0 0 0 0 0 0 0 0 0 0 0 0 0 0 0 0 0 0 0 0 0 0 0 0 0 0 0 0
0 0 0 0 0 0 0 0 0 0 0 0 0 0 0 0 0 0 0 0 0 0 0 0 0 0 0 0 0 0 0 0 0 0 0 0 0 0 0 0 0 0 0 0 0
0 0 0 0 0 0 0 0 0 0 0 0 0 0 0 0 0 0 -0 -0 0 0 0 0 0 0 0 0 0 0 0 0 0 0 0 0 0 0 0 0 0 0 0 0 0
0 0 0 0 0 0 0 0 0 0 0 0 0 0 0 0 0 0 0 0 0 0 0 0 0 0 0 0 0 0 0 0 0 0 0 0 0 0 0 0 0 0 0 0 0
0 0 0 0 0 0 0 0 0 0 0 0 0 0 0 0 0 0 0 0 0 0 0 0 0 0 0 0 0 0 0 0 0 0 0 0 0 0 0 0 0 0 0 0 0
0 0 0 0 0 0 0 0 0 0 0 0 0 0 0 0 0 0 0 0 0 0 0 0 0 0 0 0 0 0 0 0 0 0 0 0 0 0 0 0 0 0 0 0 0
0 0 0 0 0 0 0 0 0 0 0 0 0 0 0 0 0 0 0 0 0 0 0 0 0 0 0 0 0 0 0 0 0 0 0 0 0 0 0 0 0 0 0 0 0
0 0 0 0 0 0 0 0 0 0 0 0 0 0 0 0 0 0 0 0 0 0 0 0 0 0 0 0 0 0 0 0 0 0 0 0 0 0 0 0 0 0 0 0 0
0 0 0 0 0 0 0 0 0 0 0 0 0 0 0 0 0 0 0 0 0 0 0 0 0 0 0 0 0 0 0 0 0 0 0 0 0 0 0 0 0 0 0 0 0
0 0 0 0 0 0 0 0 0 0 0 0 0 0 0 0 0 0 0 0 0 0 0 0 0 0 0 0 0 0 0 0 0 0 0 0 0 0 0 0 0 0 0 0 0
0 0 0 0 0 0 0 0 0 0 0 -0 0 0 0 0 0 0 0 0 0 0 0 0 0 0 0 0 0 0 0 0 0 0 0 0 0 0 0 0 0 0 0 0 0
0 0 0 0 0 0 0 0 0 0 0 -0 0 0 0 0 0 0 0 0 0 0 0 0 0 0 0 0 0 0 0 0 0 0 0 0 -0 0 0 0 0 0 0 0 0
0 0 0 0 0 0 0 0 0 0 0 0 0 0 0 0 0 0 0 0 0 0 0 0 0 0 0 0 0 0 0 0 0 0 0 0 0 0 0 0 0 0 0 0 0
0 0 0 0 0 0 0 0 0 0 0 0 0 0 0 0 0 0 0 0 0 0 0 0 0 0 0 0 0 0 0 0 0 0 0 0 0 0 0 0 0 0 0 0 0
0 0 0 0 0 0 0 0 0 0 0 0 0 0 0 0 0 0 0 0 0 0 0 0 0 0 0 0 0 0 0 0 0 0 0 0 0 0 0 0 0 0 0 0 0
0 0 0 0 0 0 0 0 0 0 0 0 0 0 0 0 0 0 0 0 0 0 0 0 0 0 0 0 0 0 0 0 0 0 0 0 0 0 0 0 0 0 0 0 0
0 0 0 0 0 0 0 0 0 0 0 0 0 0 0 0 0 0 0 0 0 0 0 0 0 0 0 0 0 0 0 0 0 0 0 0 0 0 0 0 0 0 0 0 0
0 0 0 0 0 0 0 0 0 0 0 0 0 0 0 0 0 0 0 0 0 0 0 0 0 0 0 0 0 0 0 0 0 0 0 0 0 0 0 0 0 0 0 0 0
0 0 0 0 0 0 0 0 0 0 0 0 0 0 0 0 0 0 0 0 0 0 0 0 0 0 0 0 0 0 0 0 0 0 0 0 0 0 0 0 0 0 0 0 0
0 0 0 0 0 0 0 0 0 0 0 0 0 0 0 0 0 0 0 0 0 0 0 0 0 0 0 0 0 0 0 0 0 0 0 0 -0 0 0 0 0 0 0 0 0
0 0 0 0 0 0 0 0 0 0 0 0 0 0 0 0 0 0 0 0 0 0 0 0 0 0 0 0 0 0 0 0 0 0 0 0 0 0 0 0 0 0 0 0 0
0 0 0 0 0 0 0 0 0 0 0 0 0 0 0 0 0 0 0 0 0 0 0 0 0 0 0 0 0 0 0 0 0 0 0 0 0 0 0 0 0 0 0 0 0
0 0 0 0 0 0 0 0 0 0 0 0 0 0 0 0 0 0 0 0 0 0 0 0 0 0 0 0 0 0 0 0 0 0 0 0 0 0 0 0 0 0 0 0 0
0 0 0 0 0 0 -0 -0 0 0 0 0 0 0 0 0 0 0 0 0 0 0 0 0 0 0 0 0 0 0 0 0 0 0 0 0 0 0 0 0 0 0 0 0 0
0 0 0 0 0 0 0 0 0 0 0 0 0 0 0 0 0 0 0 0 0 0 0 0 0 0 0 0 0 0 0 0 0 0 0 0 0 0 0 0 0 0 0 0 0
Wind_Speed_500mb
12 10 7 6 4 3 3 3 3 5 7 8 10 11 12 12 11 7 4 4 4 1 2 6 11 13 14 12 9 4 8 4 9 11 10 25 8 5 14 18 9 10 14 20 30
9 7 5 3 1 0 1 2 4 5 7 9 10 12 12 12 10 5 6 7 3 3 6 10 11 9 7 6 6 8 7 3 5 8 9 18 14 20 9 18 9 18 22 27 28
11 9 6 4 3 3 4 5 6 7 9 10 11 12 12 12 3 6 9 6 3 6 6 7 8 8 4 3 4 5 5 6 8 10 12 16 12 6 11 6 12 27 32 29 31
15 13 11 8 7 7 7 8 9 9 10 11 12 11 10 8 4 6 9 7 4 9 10 16 10 4 3 4 4 5 4 6 4 5 7 6 7 5 9 8 9 27 29 31 33
23 20 18 15 13 11 11 11 11 11 11 13 13 11 7 2 3 3 4 5 10 16 19 14 8 3 4 5 4 3 2 4 3 2 3 1 4 7 3 23 22 30 29 30 31
29 27 24 23 21 18 15 15 14 14 14 14 13 12 7 4 6 4 4 5 8 14 13 12 6 4 3 4 6 1 5 6 11 10 7 7 7 3 10 34 30 32 34 30 29
34 33 31 28 26 25 23 19 17 16 15 15 14 12 14 15 12 7 5 8 13 15 12 11 6 4 2 4 1 1 5 10 19 16 7 8 11 18 26 38 37 34 33 32 30
36 36 36 34 32 30 28 24 22 20 16 15 14 14 12 15 17 18 16 16 16 18 16 9 9 5 2 4 1 3 2 2 6 25 8 9 15 10 29 46 38 36 37 35 35
33 37 37 36 36 33 31 27 26 24 20 16 14 8 12 15 22 21 19 16 16 14 14 10 11 6 6 8 8 5 6 11 9 14 9 9 12 6 34 36 37 42 44 41 40
30 31 37 37 36 37 32 28 28 27 25 21 21 10 22 14 16 14 21 16 12 15 12 10 8 6 4 7 10 11 8 10 10 13 7 9 19 13 27 35 44 49 51 48 48
35 31 30 35 36 36 34 22 15 11 20 21 7 8 9 22 15 17 27 25 15 12 10 10 7 15 24 19 12 6 6 7 8 8 8 18 18 21 40 43 45 54 61 61 57
39 35 33 28 35 37 32 15 9 7 18 28 38 37 25 20 14 22 33 23 16 11 11 6 16 21 15 15 16 15 14 15 10 7 10 13 22 18 17 32 64 72 75 75 67
44 39 34 33 31 40 37 32 22 12 12 23 47 48 54 51 25 38 43 24 11 13 16 16 13 16 15 10 12 11 12 10 15 2 6 9 14 16 20 57 57 73 82 85 89
49 45 41 38 39 37 46 34 26 9 6 13 17 21 42 36 19 43 53 23 14 24 14 17 26 6 10 14 15 14 8 12 11 1 9 7 15 12 13 20 21 69 80 86 90
59 54 50 53 33 41 37 33 25 15 8 9 8 13 35 35 30 21 59 25 17 17 14 18 16 15 17 14 16 14 6 5 6 6 2 6 10 12 17 22 41 44 65 80 87
48 54 48 60 46 40 26 42 33 6 21 9 9 10 15 13 5 13 20 12 10 7 5 10 4 12 16 4 6 16 10 12 9 5 7 19 19 8 14 21 18 14 53 76 84
48 45 56 68 77 40 34 70 9 11 9 13 10 12 7 12 7 8 12 13 16 11 16 5 8 6 12 10 11 8 14 4 6 2 16 7 13 26 19 16 13 23 55 75 81
46 47 60 73 76 51 63 4 12 29 21 7 9 9 14 13 9 14 17 15 21 6 6 21 13 25 15 18 17 16 17 12 14 9 9 3 15 13 17 30 24 30 50 70 76
40 50 58 76 84 69 74 13 25 24 23 8 6 7 11 7 13 8 16 10 16 28 21 14 13 6 3 10 24 11 15 6 4 3 3 11 15 15 12 15 6 24 54 77 80
31 44 64 79 87 83 32 34 19 30 16 41 40 19 21 21 15 19 22 14 17 36 15 10 5 3 2 8 6 13 13 5 1 7 12 11 13 21 12 26 15 21 41 56 71
30 26 38 69 77 65 27 15 15 26 40 16 36 17 16 17 17 14 15 5 22 24 59 11 10 3 10 15 26 10 10 11 7 9 10 7 15 13 23 28 27 33 58 71 76
34 16 32 56 37 18 31 24 30 18 49 19 11 14 22 24 23 24 29 19 42 35 27 28 6 9 19 8 10 12 17 14 10 12 9 5 36 7 5 17 31 42 58 69 71
18 37 44 76 26 32 19 44 32 34 41 17 26 29 25 31 22 27 24 22 37 33 24 20 10 3 9 7 4 13 15 30 9 6 18 9 28 5 5 8 33 44 60 68 71
15 9 36 69 50 40 42 42 46 60 30 49 13 34 7 21 33 15 17 19 54 44 48 46 11 28 35 10 14 14 24 34 41 16 16 49 47 6 5 12 18 42 53 63 72
27 15 15 10 38 33 35 42 43 40 70 44 24 41 35 25 28 51 45 7 5 37 41 29 24 19 39 7 14 16 30 41 46 59 27 48 48 43 28 26 41 48 44 55 68
30 17 12 15 7 15 49 12 53 47 36 42 48 43 49 47 46 54 33 28 18 9 23 9 25 24 35 18 16 16 26 49 51 54 53 59 67 15 37 49 39 58 60 66 74
41 48 22 11 9 10 17 12 3 26 31 57 56 50 50 60 84 68 36 34 7 19 14 12 18 12 43 20 13 17 73 43 40 43 41 50 72 20 38 34 44 57 70 84 87
Wind_Direction_500mb
161 159 154 143 134 124 99 60 28 7 4 0 358 359 355 353 350 348 2 342 345 154 123 75 55 55 61 40 41 55 60 336 318 146 170 157 123 106 106 133 114 95 146 150 158
183 184 181 172 176 199 349 7 349 350 347 346 348 348 348 348 340 335 333 313 277 224 165 128 76 55 57 42 49 70 90 292 345 347 151 161 142 161 149 146 107 116 131 146 157
209 207 230 244 259 299 321 327 325 332 336 332 337 340 345 350 54 28 4 342 235 191 177 142 109 96 61 37 45 39 145 313 7 53 108 137 117 145 160 198 197 184 161 160 169
253 255 241 250 274 291 299 305 312 319 321 322 328 336 342 348 155 37 28 42 123 150 153 117 100 62 107 111 87 54 103 78 354 12 83 98 120 150 210 181 173 185 168 172 177
256 261 270 269 271 279 289 295 300 305 310 314 323 332 340 343 238 300 346 53 112 135 133 116 80 29 78 106 106 121 209 118 190 242 148 204 176 222 189 168 164 166 177 183 184
253 256 261 270 276 277 279 288 295 301 307 310 317 321 311 265 249 273 253 209 172 158 142 148 104 58 4 90 125 251 323 268 214 212 222 195 246 239 222 194 185 185 189 194 198
249 254 257 262 269 276 282 285 290 296 303 306 311 311 284 257 232 240 261 227 210 202 183 192 193 176 55 101 130 262 325 300 236 205 220 187 294 228 226 194 190 189 195 200 204
252 248 253 257 262 271 278 285 289 290 293 297 300 302 265 249 246 241 238 227 212 206 215 222 204 181 170 132 264 216 122 296 275 165 188 135 266 264 223 187 185 195 207 209 212
256 256 250 251 257 261 272 281 285 289 289 287 288 270 263 239 237 235 225 211 205 200 202 198 167 149 146 100 12 317 231 215 297 169 128 164 260 196 172 191 195 202 213 216 213
257 256 256 250 252 259 261 272 282 285 280 279 248 268 235 217 215 211 195 192 184 171 151 161 155 98 41 103 220 213 216 255 226 227 162 188 256 249 207 211 219 210 212 218 216
263 261 259 255 250 254 261 270 282 281 235 218 206 207 177 208 205 205 182 170 153 160 156 185 124 201 203 199 204 223 208 235 261 219 151 223 249 250 242 225 228 218 211 214 218
256 258 266 263 250 243 248 230 230 271 296 258 245 242 243 218 181 185 173 170 169 188 139 64 230 225 199 216 225 245 260 265 291 207 170 259 254 257 237 224 225 220 217 216 210
250 247 250 267 261 242 236 236 235 278 272 263 248 237 226 224 213 202 184 184 168 167 191 177 219 211 194 214 200 221 198 223 219 245 270 293 271 248 249 242 236 234 229 221 216
244 254 245 237 250 247 236 228 225 226 282 260 212 216 202 201 227 218 204 174 188 193 191 226 229 195 162 214 177 239 207 222 241 184 244 152 285 240 250 265 222 232 222 222 214
245 242 252 242 235 224 246 211 184 165 298 241 155 162 175 171 144 173 190 198 173 184 150 229 180 186 203 208 168 226 145 147 190 189 330 288 290 266 216 250 252 237 222 215 217
251 242 244 235 219 227 204 169 156 124 237 210 135 157 132 187 111 128 169 161 153 172 272 202 151 161 191 93 168 149 78 38 39 76 268 221 217 202 233 235 263 240 220 207 206
250 246 245 238 222 204 188 147 134 206 294 198 173 170 166 159 123 144 155 177 170 159 218 170 210 173 146 93 6 114 103 294 319 323 244 246 239 245 250 240 223 236 198 197 197
250 245 238 251 231 200 163 94 172 215 223 78 105 96 183 146 185 169 142 192 243 226 131 193 262 172 188 186 172 195 162 167 220 217 260 23 239 251 230 262 260 248 214 194 195
259 247 240 240 233 198 155 202 196 184 191 199 106 148 210 166 137 144 197 220 194 196 192 179 255 104 93 155 156 199 214 165 52 47 17 224 278 294 227 261 258 190 192 195 199
274 253 244 232 222 197 194 207 225 201 149 190 213 172 177 181 155 177 180 206 214 193 206 216 239 331 60 97 51 153 157 90 150 212 250 253 249 239 230 240 214 216 197 193 201
276 249 247 228 217 193 216 224 219 218 241 161 220 210 177 179 184 201 211 245 189 188 196 188 179 300 131 201 174 158 181 202 157 174 207 278 254 215 217 216 201 217 203 205 208
259 239 240 206 200 212 211 203 207 194 244 252 227 228 220 173 188 207 213 213 190 165 188 203 134 171 208 275 255 198 184 173 169 218 237 187 259 171 173 216 201 214 208 212 214
251 243 236 198 208 218 206 224 228 199 201 210 223 207 228 241 238 220 222 197 192 169 175 171 215 105 311 352 17 209 202 220 274 51 217 207 266 321 45 205 216 210 212 213 213
229 250 216 209 237 220 207 213 214 213 224 213 203 227 225 227 238 238 228 203 205 193 189 173 175 210 228 191 151 196 202 208 212 230 221 236 261 236 200 229 220 218 217 215 216
217 232 239 207 230 244 243 221 210 212 208 203 238 233 226 221 230 237 225 175 257 198 187 170 213 205 248 209 159 186 198 205 210 224 211 250 240 241 233 223 221 226 216 210 215
215 215 253 278 266 224 228 254 228 215 200 209 223 211 225 231 217 234 221 212 198 186 200 171 232 214 251 230 223 219 211 217 217 229 235 248 255 170 231 241 223 227 220 211 217
223 237 252 246 260 234 222 194 254 233 226 233 208 224 227 226 233 241 234 220 148 156 175 169 194 166 244 210 245 277 233 226 226 230 223 237 246 213 247 240 234 231 225 220 227
Wind_Speed_850mb
12 10 7 6 4 3 3 3 3 5 7 8 10 11 12 12 11 7 4 4 4 1 2 6 11 13 14 12 9 4 8 4 9 11 10 25 8 5 14 18 9 10 14 20 30
9 7 5 3 1 0 1 2 4 5 7 9 10 12 12 12 10 5 6 7 3 3 6 10 11 9 7 6 6 8 7 3 5 8 9 18 14 20 9 18 9 18 22 27 28
11 9 6 4 3 3 4 5 6 7 9 10 11 12 12 12 3 6 9 6 3 6 6 7 8 8 4 3 4 5 5 6 8 10 12 16 12 6 11 6 12 27 32 29 31
15 13 11 8 7 7 7 8 9 9 10 11 12 11 10 8 4 6 9 7 4 9 10 16 10 4 3 4 4 5 4 6 4 5 7 6 7 5 9 8 9 27 29 31 33
23 20 18 15 13 11 11 11 11 11 11 13 13 11 7 2 3 3 4 5 10 16 19 14 8 3 4 5 4 3 2 4 3 2 3 1 4 7 3 23 22 30 29 30 31
29 27 24 23 21 18 15 15 14 14 14 14 13 12 7 4 6 4 4 5 8 14 13 12 6 4 3 4 6 1 5 6 11 10 7 7 7 3 10 34 30 32 34 30 29
34 33 31 28 26 25 23 19 17 16 15 15 14 12 14 15 12 7 5 8 13 15 12 11 6 4 2 4 1 1 5 10 19 16 7 8 11 18 26 38 37 34 33 32 30
36 36 36 34 32 30 28 24 22 20 16 15 14 14 12 15 17 18 16 16 16 18 16 9 9 5 2 4 1 3 2 2 6 25 8 9 15 10 29 46 38 36 37 35 35
33 37 37 36 36 33 31 27 26 24 20 16 14 8 12 15 22 21 19 16 16 14 14 10 11 6 6 8 8 5 6 11 9 14 9 9 12 6 34 36 37 42 44 41 40
30 31 37 37 36 37 32 28 28 27 25 21 21 10 22 14 16 14 21 16 12 15 12 10 8 6 4 7 10 11 8 10 10 13 7 9 19 13 27 35 44 49 51 48 48
35 31 30 35 36 36 34 22 15 11 20 21 7 8 9 22 15 17 27 25 15 12 10 10 7 15 24 19 12 6 6 7 8 8 8 18 18 21 40 43 45 54 61 61 57
39 35 33 28 35 37 32 15 9 7 18 28 38 37 25 20 14 22 33 23 16 11 11 6 16 21 15 15 16 15 14 15 10 7 10 13 22 18 17 32 64 72 75 75 67
44 39 34 33 31 40 37 32 22 12 12 23 47 48 54 51 25 38 43 24 11 13 16 16 13 16 15 10 12 11 12 10 15 2 6 9 14 16 20 57 57 73 82 85 89
49 45 41 38 39 37 46 34 26 9 6 13 17 21 42 36 19 43 53 23 14 24 14 17 26 6 10 14 15 14 8 12 11 1 9 7 15 12 13 20 21 69 80 86 90
59 54 50 53 33 41 37 33 25 15 8 9 8 13 35 35 30 21 59 25 17 17 14 18 16 15 17 14 16 14 6 5 6 6 2 6 10 12 17 22 41 44 65 80 87
48 54 48 60 46 40 26 42 33 6 21 9 9 10 15 13 5 13 20 12 10 7 5 10 4 12 16 4 6 16 10 12 9 5 7 19 19 8 14 21 18 14 53 76 84
48 45 56 68 77 40 34 70 9 11 9 13 10 12 7 12 7 8 12 13 16 11 16 5 8 6 12 10 11 8 14 4 6 2 16 7 13 26 19 16 13 23 55 75 81
46 47 60 73 76 51 63 4 12 29 21 7 9 9 14 13 9 14 17 15 21 6 6 21 13 25 15 18 17 16 17 12 14 9 9 3 15 13 17 30 24 30 50 70 76
40 50 58 76 84 69 74 13 25 24 23 8 6 7 11 7 13 8 16 10 16 28 21 14 13 6 3 10 24 11 15 6 4 3 3 11 15 15 12 15 6 24 54 77 80
31 44 64 79 87 83 32 34 19 30 16 41 40 19 21 21 15 19 22 14 17 36 15 10 5 3 2 8 6 13 13 5 1 7 12 11 13 21 12 26 15 21 41 56 71
30 26 38 69 77 65 27 15 15 26 40 16 36 17 16 17 17 14 15 5 22 24 59 11 10 3 10 15 26 10 10 11 7 9 10 7 15 13 23 28 27 33 58 71 76
34 16 32 56 37 18 31 24 30 18 49 19 11 14 22 24 23 24 29 19 42 35 27 28 6 9 19 8 10 12 17 14 10 12 9 5 36 7 5 17 31 42 58 69 71
18 37 44 76 26 32 19 44 32 34 41 17 26 29 25 31 22 27 24 22 37 33 24 20 10 3 9 7 4 13 15 30 9 6 18 9 28 5 5 8 33 44 60 68 71
15 9 36 69 50 40 42 42 46 60 30 49 13 34 7 21 33 15 17 19 54 44 48 46 11 28 35 10 14 14 24 34 41 16 16 49 47 6 5 12 18 42 53 63 72
27 15 15 10 38 33 35 42 43 40 70 44 24 41 35 25 28 51 45 7 5 37 41 29 24 19 39 7 14 16 30 41 46 59 27 48 48 43 28 26 41 48 44 55 68
30 17 12 15 7 15 49 12 53 47 36 42 48 43 49 47 46 54 33 28 18 9 23 9 25 24 35 18 16 16 26 49 51 54 53 59 67 15 37 49 39 58 60 66 74
41 48 22 11 9 10 17 12 3 26 31 57 56 50 50 60 84 68 36 34 7 19 14 12 18 12 43 20 13 17 73 43 40 43 41 50 72 20 38 34 44 57 70 84 87
Wind_Direction_850mb
161 159 154 143 134 124 99 60 28 7 4 0 358 359 355 353 350 348 2 342 345 154 123 75 55 55 61 40 41 55 60 336 318 146 170 157 123 106 106 133 114 95 146 150 158
183 184 181 172 176 199 349 7 349 350 347 346 348 348 348 348 340 335 333 313 277 224 165 128 76 55 57 42 49 70 90 292 345 347 151 161 142 161 149 146 107 116 131 146 157
209 207 230 244 259 299 321 327 325 332 336 332 337 340 345 350 54 28 4 342 235 191 177 142 109 96 61 37 45 39 145 313 7 53 108 137 117 145 160 198 197 184 161 160 169
253 255 241 250 274 291 299 305 312 319 321 322 328 336 342 348 155 37 28 42 123 150 153 117 100 62 107 111 87 54 103 78 354 12 83 98 120 150 210 181 173 185 168 172 177
256 261 270 269 271 279 289 295 300 305 310 314 323 332 340 343 238 300 346 53 112 135 133 116 80 29 78 106 106 121 209 118 190 242 148 204 176 222 189 168 164 166 177 183 184
253 256 261 270 276 277 279 288 295 301 307 310 317 321 311 265 249 273 253 209 172 158 142 148 104 58 4 90 125 251 323 268 214 212 222 195 246 239 222 194 185 185 189 194 198
249 254 257 262 269 276 282 285 290 296 303 306 311 311 284 257 232 240 261 227 210 202 183 192 193 176 55 101 130 262 325 300 236 205 220 187 294 228 226 194 190 189 195 200 204
252 248 253 257 262 271 278 285 289 290 293 297 300 302 265 249 246 241 238 227 212 206 215 222 204 181 170 132 264 216 122 296 275 165 188 135 266 264 223 187 185 195 207 209 212
256 256 250 251 257 261 272 281 285 289 289 287 288 270 263 239 237 235 225 211 205 200 202 198 167 149 146 100 12 317 231 215 297 169 128 164 260 196 172 191 195 202 213 216 213
257 256 256 250 252 259 261 272 282 285 280 279 248 268 235 217 215 211 195 192 184 171 151 161 155 98 41 103 220 213 216 255 226 227 162 188 256 249 207 211 219 210 212 218 216
263 261 259 255 250 254 261 270 282 281 235 218 206 207 177 208 205 205 182 170 153 160 156 185 124 201 203 199 204 223 208 235 261 219 151 223 249 250 242 225 228 218 211 214 218
256 258 266 263 250 243 248 230 230 271 296 258 245 242 243 218 181 185 173 170 169 188 139 64 230 225 199 216 225 245 260 265 291 207 170 259 254 257 237 224 225 220 217 216 210
250 247 250 267 261 242 236 236 235 278 272 263 248 237 226 224 213 202 184 184 168 167 191 177 219 211 194 214 200 221 198 223 219 245 270 293 271 248 249 242 236 234 229 221 216
244 254 245 237 250 247 236 228 225 226 282 260 212 216 202 201 227 218 204 174 188 193 191 226 229 195 162 214 177 239 207 222 241 184 244 152 285 240 250 265 222 232 222 222 214
245 242 252 242 235 224 246 211 184 165 298 241 155 162 175 171 144 173 190 198 173 184 150 229 180 186 203 208 168 226 145 147 190 189 330 288 290 266 216 250 252 237 222 215 217
251 242 244 235 219 227 204 169 156 124 237 210 135 157 132 187 111 128 169 161 153 172 272 202 151 161 191 93 168 149 78 38 39 76 268 221 217 202 233 235 263 240 220 207 206
250 246 245 238 222 204 188 147 134 206 294 198 173 170 166 159 123 144 155 177 170 159 218 170 210 173 146 93 6 114 103 294 319 323 244 246 239 245 250 240 223 236 198 197 197
250 245 238 251 231 200 163 94 172 215 223 78 105 96 183 146 185 169 142 192 243 226 131 193 262 172 188 186 172 195 162 167 220 217 260 23 239 251 230 262 260 248 214 194 195
259 247 240 240 233 198 155 202 196 184 191 199 106 148 210 166 137 144 197 220 194 196 192 179 255 104 93 155 156 199 214 165 52 47 17 224 278 294 227 261 258 190 192 195 199
274 253 244 232 222 197 194 207 225 201 149 190 213 172 177 181 155 177 180 206 214 193 206 216 239 331 60 97 51 153 157 90 150 212 250 253 249 239 230 240 214 216 197 193 201
276 249 247 228 217 193 216 224 219 218 241 161 220 210 177 179 184 201 211 245 189 188 196 188 179 300 131 201 174 158 181 202 157 174 207 278 254 215 217 216 201 217 203 205 208
259 239 240 206 200 212 211 203 207 194 244 252 227 228 220 173 188 207 213 213 190 165 188 203 134 171 208 275 255 198 184 173 169 218 237 187 259 171 173 216 201 214 208 212 214
251 243 236 198 208 218 206 224 228 199 201 210 223 207 228 241 238 220 222 197 192 169 175 171 215 105 311 352 17 209 202 220 274 51 217 207 266 321 45 205 216 210 212 213 213
229 250 216 209 237 220 207 213 214 213 224 213 203 227 225 227 238 238 228 203 205 193 189 173 175 210 228 191 151 196 202 208 212 230 221 236 261 236 200 229 220 218 217 215 216
217 232 239 207 230 244 243 221 210 212 208 203 238 233 226 221 230 237 225 175 257 198 187 170 213 205 248 209 159 186 198 205 210 224 211 250 240 241 233 223 221 226 216 210 215
215 215 253 278 266 224 228 254 228 215 200 209 223 211 225 231 217 234 221 212 198 186 200 171 232 214 251 230 223 219 211 217 217 229 235 248 255 170 231 241 223 227 220 211 217
223 237 252 246 260 234 222 194 254 233 226 233 208 224 227 226 233 241 234 220 148 156 175 169 194 166 244 210 245 277 233 226 226 230 223 237 246 213 247 240 234 231 225 220 227